Location: NJAA Observatory
(40.6819°N, 74.8979°W)
Time: 01:02:40
(UTC-04:00)

Cosmos 2237 Rocket - Visible Passes

Search period start: 25 April 2018 00:00
Search period end: 05 May 2018 00:00
Orbit: 835 x 849 km, 71.0° (Epoch: 24 April)

Date Brightness Start Highest point End Pass type
(mag) Time Alt. Az. Time Alt. Az. Time Alt. Az.
25 Apr 5.6 04:20:07 10° NNE 04:22:00 12° NE 04:23:53 10° ENE visible
25 Apr 2.9 20:52:29 10° SW 20:58:00 57° WNW 21:03:34 10° NNE visible
26 Apr 5.6 04:05:32 10° NNE 04:07:06 11° NE 04:08:39 10° ENE visible
26 Apr 2.9 20:37:36 10° SW 20:43:08 60° WNW 20:48:43 10° NNE visible
26 Apr 5.6 22:27:39 10° NW 22:28:26 10° NW 22:29:13 10° NW visible
27 Apr 5.7 03:51:04 10° NNE 03:52:11 11° NE 03:53:18 10° NE visible
27 Apr 2.9 05:31:50 10° NNW 05:37:28 61° ENE 05:43:05 10° SE visible
27 Apr 2.8 20:22:43 10° SW 20:28:17 63° WNW 20:33:54 10° NNE visible
27 Apr 5.6 22:12:11 10° WNW 22:13:32 11° NW 22:14:52 10° NNW visible
28 Apr 5.7 03:37:00 10° NE 03:37:17 10° NE 03:37:34 10° NE visible
28 Apr 3.0 05:17:00 10° NNW 05:22:37 58° ENE 05:28:12 10° SE visible
28 Apr 5.6 21:56:55 10° WNW 21:58:38 11° NW 22:00:21 10° NNW visible
29 Apr 3.1 05:02:11 10° NNW 05:07:46 55° ENE 05:13:19 10° SE visible
29 Apr 5.6 21:41:43 10° WNW 21:43:44 12° NW 21:45:45 10° NNW visible
30 Apr 3.1 04:47:21 10° NNW 04:52:54 53° ENE 04:58:26 10° SE visible
30 Apr 5.5 21:26:33 10° WNW 21:28:50 12° NW 21:31:08 10° NNW visible
01 May 3.2 04:32:31 10° NNW 04:38:03 50° ENE 04:43:34 10° SE visible
01 May 5.5 21:11:25 10° WNW 21:13:56 13° NW 21:16:27 10° NNW visible
02 May 3.3 04:17:41 10° NNW 04:23:12 48° ENE 04:28:40 10° SE visible
02 May 5.4 20:56:19 10° WNW 20:59:02 13° NW 21:01:46 10° NNW visible
03 May 3.3 04:02:52 10° NNW 04:08:20 46° ENE 04:13:46 10° SE visible
03 May 5.3 20:41:14 10° WNW 20:44:09 14° NW 20:47:04 10° NNW visible
04 May 3.4 03:48:04 10° NNW 03:53:29 44° ENE 03:58:53 10° SE visible
04 May 5.3 20:26:10 10° W 20:29:15 15° NW 20:32:21 10° NNW visible
